{"data":{"norad_id":58750,"intl_designator":"2024-005Y","name":"STARLINK-31179","alt_names":[],"object_type":"PAYLOAD","status":"ACTIVE","operator":null,"country":"US","launch_date":"2024-01-07","launch_site_code":"AFETR","launch_vehicle":null,"mission":null,"orbit_class":"UNKNOWN","rcs_meters":null,"size_class":null,"mass_kg":null,"dimensions":null,"purposes":["comms"],"wikipedia_slug":null,"has_3d_model":false,"image_url":null,"decayed_at":null,"tle_current":{"epoch":"2026-05-24T11:42:59.225472Z","epoch_age_seconds":123291,"freshness":"FRESH","line1":"1 58750U 24005Y   26144.48818548  .00001423  00000+0  61253-4 0  9999","line2":"2 58750  43.0034 151.8919 0001777 277.3640  82.7010 15.27577772132033","mean_motion":15.27577772,"eccentricity":0.0001777,"inclination_deg":43.0034,"raan_deg":151.8919,"arg_perigee_deg":277.364,"mean_anomaly_deg":82.701,"bstar":6.1253e-5,"rev_number":13203,"period_min":94.266886203421,"perigee_km":481.8365335265,"apogee_km":484.27500143606,"semimajor_km":6861.1927674813,"source":"CELESTRAK","updated_at":"2026-05-25T13:38:18.742474Z"}}}